Location: Le Vaud
(46.4779°N, 6.2346°E)
Time: 05:00:56
(UTC+00:00)

Cosmos 1153 Rocket - Pass Details

Date: 18 February 2020
Orbit: 953 x 1007 km, 82.9° (Epoch: 31 March)

Event Time Altitude Azimuth Distance (km) Brightness Sun altitude
Rises 04:43:03 0° 349° (NNW) 3,655 7.4 -19.9°
Reaches altitude 10° 04:45:35 10° 347° (NNW) 2,700 6.7 -19.4°
Maximum altitude 04:51:40 67° 266° (W) 1,031 4.4 -18.4°
Drops below altitude 10° 04:57:43 10° 185° (S) 2,673 6.7 -17.4°
Sets 05:00:13 0° 183° (S) 3,616 7.5 -16.9°
